Voltar ao catálogo

STARLINK-35086

AtivoComunicaçõesVLEO
NORAD 65699·PAYLOAD·🇺🇸 United States

Lançado Sep 21, 2025 de Cape Canaveral Space Force Station

Loading…

Próximas Passagens (próximas 24 horas)

TLE

AtualizadoSource: CelesTrak SupGP

Época: Sep 14, 2026, 20:56 UTC

1 65699C 25212Z   26257.87270833  .00010826  00000+0  34794-3 0  2570
2 65699  53.1574 186.1273 0001448 103.5320 116.7250 15.31712979    19

Acompanhe STARLINK-35086 em tempo real com AllMySat

Download on the App Store